15min,AgWx,evansfrm,411,14SEP2017:00:00:00,64.8,12.93,63.7,63.9,65.0,66.1,63.9,64,67,60,1.360,52.4,52.9,51.6,5.678,8.1,101,22,13.6,0.00031,0.00042,76.8,75.4,11,0,99,60.5,3.42,0.04,0.01
15min,AgWx,evansfrm,411,14SEP2017:00:15:00,63.8,12.96,66.0,66.2,65.3,67.2,63.8,62,68,54,1.241,51.8,53.4,50.0,8.57,9.0,73,12,15.6,0.00037,0.00049,76.6,75.2,11,0,0,64.0,3.40,0.00,0.01
15min,AgWx,evansfrm,411,14SEP2017:00:30:00,63.5,12.96,64.1,64.2,65.9,68.6,63.9,58,65,48,1.322,50.8,52.0,48.1,4.275,7.1,170,44,13.2,0.00033,0.00046,76.2,74.8,11,0,0,64.9,3.41,0.01,0.00
15min,AgWx,evansfrm,411,14SEP2017:00:45:00,63.4,12.95,63.4,63.2,63.2,64.2,62.7,68,70,65,1.337,52.5,52.8,52.1,7.76,6.3,206,13,10.4,0.00016,0.00024,76.2,75.0,11,0,0,61.8,3.41,0.00,0.00
15min,AgWx,evansfrm,411,14SEP2017:01:00:00,63.1,12.95,61.4,61.9,62.8,63.4,61.9,68,72,66,1.356,52.2,52.7,51.8,1.688,2.5,208,86,7.2,-0.00007,-0.00007,75.9,74.8,11,0,0,60.1,3.41,0.00,0.00
15min,AgWx,evansfrm,411,14SEP2017:01:15:00,62.3,12.94,59.8,60.2,61.0,61.9,60.2,76,80,72,1.425,53.4,54.4,52.7,2.696,1.0,342,57,2.7,-0.00024,-0.00034,75.7,74.8,11,0,0,56.7,3.42,0.00,0.00
15min,AgWx,evansfrm,411,14SEP2017:01:30:00,61.3,12.94,58.9,58.7,58.7,60.0,57.8,86,89,80,1.460,54.6,55.5,53.5,3.836,2.7,128,50,4.9,-0.00015,-0.00019,75.5,74.5,11,0,0,56.6,3.42,0.00,0.00
15min,AgWx,evansfrm,411,14SEP2017:01:45:00,60.7,12.93,59.1,59.1,58.9,59.2,58.3,87,88,86,1.479,55.0,55.3,54.5,4.034,2.1,2.7,59,4.8,-0.00018,-0.00024,75.2,74.5,11,0,0,57.2,3.41,0.00,0.00
15min,AgWx,evansfrm,411,14SEP2017:02:00:00,60.2,12.92,58.3,58.6,58.7,59.0,58.5,88,89,86,1.483,55.1,55.3,54.9,1.381,1.5,287,26,4.7,-0.00021,-0.00029,74.9,74.3,11,0,0,57.1,3.41,0.00,0.00
15min,AgWx,evansfrm,411,14SEP2017:02:15:00,59.7,12.92,58.3,58.3,58.0,58.6,57.6,90,91,88,1.510,55.0,55.7,54.7,3.464,3.5,128,43,5.9,-0.00014,-0.00016,74.5,74.5,11,0,0,57.2,3.41,0.00,0.00
15min,AgWx,evansfrm,411,14SEP2017:02:30:00,59.5,12.91,58.3,58.4,58.5,59.0,58.2,89,91,88,1.501,55.3,55.7,55.0,0.702,3.2,113,42,5.5,-0.00014,-0.00017,74.4,74.3,11,0,0,58.2,3.41,0.00,0.00
15min,AgWx,evansfrm,411,14SEP2017:02:45:00,59.3,12.85,58.8,58.6,58.3,58.6,58.1,91,92,90,1.510,55.7,56.1,55.4,3.332,1.2,13,22,3.5,-0.00024,-0.00034,74.2,74.1,11,0,0,57.4,3.41,0.00,0.00
15min,AgWx,evansfrm,411,14SEP2017:03:00:00,59.3,12.9,58.1,58.2,58.7,59.2,58.1,89,91,89,1.509,55.6,55.8,55.4,0,1.2,16,56,3.7,-0.00023,-0.00033,74.0,73.9,11,0,0,57.9,3.41,0.00,0.00
15min,AgWx,evansfrm,411,14SEP2017:03:15:00,59.1,12.89,58.4,58.4,58.2,58.7,57.9,92,93,91,1.542,56.0,56.5,55.6,0.702,0.9,6.6,62,2.5,-0.00025,-0.00037,73.6,73.9,11,0,0,57.3,3.41,0.00,0.00
15min,AgWx,evansfrm,411,14SEP2017:03:30:00,59.0,12.89,58.4,58.3,58.3,58.5,58.2,93,94,93,1.553,56.4,56.6,56.2,0,0.9,30,24,2.5,-0.00025,-0.00037,73.5,73.8,11,0,0,57.3,3.42,0.00,0.00
15min,AgWx,evansfrm,411,14SEP2017:03:45:00,59.0,12.88,59.3,59.3,59.0,59.5,58.2,89,94,86,1.487,55.8,56.6,55.2,0,0.5,84,22,2.4,-0.00028,-0.00042,73.4,73.8,11,0,0,58.3,3.41,0.00,0.00
15min,AgWx,evansfrm,411,14SEP2017:04:00:00,59.0,12.87,58.7,59.0,59.2,59.6,58.8,88,90,86,1.528,55.7,56.0,55.1,1.25,1.1,217,13,3.0,-0.00024,-0.00035,73.1,73.6,11,0,0,58.2,3.41,0.00,0.00
15min,AgWx,evansfrm,411,14SEP2017:04:15:00,58.8,12.86,58.2,58.0,58.2,59.0,57.9,91,91,90,1.485,55.5,56.1,55.2,3.727,3.1,198,11,4.5,-0.00016,-0.00019,72.9,73.6,11,0,0,57.5,3.42,0.00,0.00
15min,AgWx,evansfrm,411,14SEP2017:04:30:00,58.4,12.85,57.3,57.5,57.7,58.2,57.1,90,91,89,1.461,54.8,55.2,54.5,2.499,2.2,151,35,3.7,-0.00019,-0.00024,72.9,73.4,11,0,0,56.6,3.42,0.00,0.00
15min,AgWx,evansfrm,411,14SEP2017:04:45:00,58.0,12.84,56.4,57.0,57.0,57.6,56.6,91,92,90,1.453,54.4,54.8,53.9,0,0.9,144,44,3.4,-0.00025,-0.00037,72.7,73.2,11,0,0,55.2,3.42,0.00,0.00
15min,AgWx,evansfrm,411,14SEP2017:05:00:00,57.4,12.84,56.4,56.5,56.8,57.1,56.4,92,92,90,1.415,54.3,54.6,53.7,1.798,0.4,156,3.2,1.9,-0.00028,-0.00043,72.5,73.2,11,0,0,54.6,3.42,0.00,0.00
15min,AgWx,evansfrm,411,14SEP2017:05:15:00,56.8,12.83,54.7,55.1,55.1,56.5,54.5,92,95,90,1.403,52.9,53.8,52.6,0.526,0.8,119,37,2.1,-0.00025,-0.00037,72.4,73.0,11,0,0,54.1,3.42,0.01,0.00
15min,AgWx,evansfrm,411,14SEP2017:05:30:00,56.4,12.82,55.2,55.4,54.9,55.5,54.5,96,97,94,1.459,53.8,54.8,53.1,3.179,1.1,143,16,3.3,-0.00025,-0.00035,72.1,72.9,11,0,0,54.6,3.42,0.00,0.00
15min,AgWx,evansfrm,411,14SEP2017:05:45:00,56.3,12.81,55.9,56.1,55.8,56.1,55.5,97,97,97,1.495,55.0,55.4,54.8,1.885,1.8,174,21,3.2,-0.00022,-0.00031,71.9,72.9,11,0,0,56.1,3.42,0.00,0.00
15min,AgWx,evansfrm,411,14SEP2017:06:00:00,56.3,12.81,56.2,56.2,56.2,56.4,56.0,98,98,97,1.506,55.5,55.7,55.2,0.899,1.8,162,15,2.6,-0.00023,-0.00031,71.9,73.0,11,0,0,56.1,3.42,0.00,0.00
15min,AgWx,evansfrm,411,14SEP2017:06:15:00,56.5,12.79,56.5,56.4,56.2,56.4,56.1,98,99,98,1.521,55.7,56.0,55.5,2.039,1.0,179,28,2.0,-0.00025,-0.00036,71.5,72.9,11,3,0,56.1,3.42,0.00,0.00
15min,AgWx,evansfrm,411,14SEP2017:06:30:00,56.6,12.76,57.9,57.4,56.8,57.4,56.3,97,98,93,1.492,55.8,56.2,55.1,2.192,1.3,159,28,4.1,0.00003,0.00004,71.6,72.7,11,2,26,57.8,3.42,0.00,0.00
15min,AgWx,evansfrm,411,14SEP2017:06:45:00,56.8,12.75,57.3,57.4,57.6,57.8,57.3,92,93,91,1.500,55.3,55.6,55.0,2.477,3.3,15,54,6.3,0.00010,0.00015,71.4,72.5,11,3,100,60.5,3.43,0.01,0.00
15min,AgWx,evansfrm,411,14SEP2017:07:00:00,56.9,12.79,57.0,57.0,57.2,57.4,57.0,95,95,93,1.512,55.7,56.0,55.4,2.543,2.3,309,27,4.4,0.00014,0.00017,71.2,72.5,11,17,91,60.5,3.43,0.00,0.00
15min,AgWx,evansfrm,411,14SEP2017:07:15:00,57.0,12.85,57.3,57.3,57.2,57.5,57.0,96,96,95,1.541,56.0,56.4,55.7,4.012,2.0,59,84,5.2,0.00023,0.00026,71.1,72.5,11,42,4,58.4,3.43,0.00,0.00
15min,AgWx,evansfrm,411,14SEP2017:07:30:00,57.3,12.87,58.4,58.3,57.8,58.3,57.3,97,97,96,1.615,57.0,57.5,56.3,2.083,1.6,195,42,3.9,0.00032,0.00035,70.9,72.3,11,57,0,59.0,3.42,0.00,0.00
15min,AgWx,evansfrm,411,14SEP2017:07:45:00,57.7,12.9,58.9,59.0,58.3,59.0,57.9,97,98,97,1.661,57.6,58.4,57.0,0,1.3,191,48,2.7,0.00037,0.00040,71.0,72.1,11,58,0,61.4,3.42,0.00,0.00
15min,AgWx,evansfrm,411,14SEP2017:08:00:00,58.2,12.99,59.6,59.5,59.0,59.5,58.7,97,98,97,1.675,58.2,58.6,57.8,1.841,1.8,342,37,3.4,0.00051,0.00056,70.8,72.1,11,88,0,64.0,3.42,0.00,0.00
15min,AgWx,evansfrm,411,14SEP2017:08:15:00,59.0,13.21,60.6,59.8,59.8,60.2,59.3,96,97,94,1.653,58.6,59.1,58.1,0.197,2.5,307,28,6.4,0.00086,0.00093,70.7,72.0,11,163,0,66.8,3.42,0.00,0.00
15min,AgWx,evansfrm,411,14SEP2017:08:30:00,60.2,13.39,60.9,60.7,60.4,60.7,59.8,92,94,91,1.665,58.2,58.5,57.6,1.6,2.6,341,44,5.2,0.00105,0.00115,70.8,71.8,11,189,0,68.9,3.42,0.00,0.00
15min,AgWx,evansfrm,411,14SEP2017:08:45:00,61.2,13.49,61.8,61.3,61.1,61.5,60.7,91,93,89,1.639,58.4,58.9,57.7,0.132,2.1,317,58,5.4,0.00096,0.00106,70.8,71.8,11,156,0,68.5,3.42,0.00,0.00
15min,AgWx,evansfrm,411,14SEP2017:09:00:00,62.4,13.53,62.9,62.5,62.0,62.5,61.2,87,89,83,1.591,58.0,58.7,57.1,2.521,1.4,345,50,4.0,0.00115,0.00126,70.8,71.8,11,184,0,71.8,3.42,0.00,0.00
15min,AgWx,evansfrm,411,14SEP2017:09:15:00,63.5,13.59,63.7,63.9,63.0,63.9,62.5,80,83,78,1.609,56.7,57.4,56.1,0.723,3.3,4.2,22,6.0,0.00121,0.00143,70.9,71.8,11,174,0,70.7,3.42,0.00,0.00
15min,AgWx,evansfrm,411,14SEP2017:09:30:00,64.2,13.73,64.7,64.6,63.8,64.6,63.3,78,80,75,1.572,56.9,57.8,56.0,1.491,2.3,299,72,6.0,0.00148,0.00167,71.0,71.8,11,224,0,74.8,3.42,0.00,0.00
15min,AgWx,evansfrm,411,14SEP2017:09:45:00,65.6,14.37,66.8,66.3,65.0,66.4,63.9,74,76,68,1.496,56.4,57.8,55.4,1.907,2.3,351,30,4.8,0.00268,0.00298,71.0,71.4,11,446,0,91.2,3.41,0.00,0.00
15min,AgWx,evansfrm,411,14SEP2017:10:00:00,68.4,14.34,68.7,68.4,67.2,68.4,66.3,65,70,63,1.580,55.1,56.9,53.6,3.157,2.1,356,41,4.9,0.00434,0.00478,71.1,71.6,11,702,0,115.0,3.43,0.01,0.00
15min,AgWx,evansfrm,411,14SEP2017:10:15:00,69.8,14.07,68.6,67.6,67.9,68.7,66.9,65,69,62,1.511,55.6,58.0,54.4,0,1.8,309,53,4.1,0.00265,0.00297,71.4,71.6,11,399,0,97.1,3.45,0.02,0.00
15min,AgWx,evansfrm,411,14SEP2017:10:30:00,70.8,14.26,70.1,69.1,68.5,69.6,67.6,64,66,59,1.436,55.8,57.7,54.3,3.113,0.8,327,63,3.1,0.00241,0.00264,71.7,71.6,11,364,0,93.8,3.45,0.00,0.00
15min,AgWx,evansfrm,411,14SEP2017:10:45:00,71.6,14.29,70.0,69.6,69.1,70.0,68.3,60,64,58,1.557,54.7,56.9,52.9,4.253,2.1,124,97,5.3,0.00318,0.00358,72.0,71.6,11,485,0,95.5,3.44,0.00,0.00
15min,AgWx,evansfrm,411,14SEP2017:11:00:00,75.0,14.25,71.6,70.4,69.9,71.2,68.9,62,66,57,1.441,56.1,58.7,54.4,6.072,4.0,271,26,6.1,0.00580,0.00650,72.4,71.4,11,896,0,116.6,3.43,0.00,0.00
15min,AgWx,evansfrm,411,14SEP2017:11:15:00,76.7,14.22,72.2,71.0,69.8,71.0,69.2,58,62,53,1.442,54.2,56.5,51.8,4.954,2.7,313,32,7.1,0.00491,0.00549,72.6,71.4,11,765,0,119.4,3.43,0.00,0.00
15min,AgWx,evansfrm,411,14SEP2017:11:30:00,78.1,14.17,71.9,71.1,71.3,72.3,70.5,54,59,50,1.512,54.0,55.7,51.9,3.135,3.1,284,42,7.2,0.00444,0.00505,73.0,71.6,11,656,0,114.1,3.46,0.03,0.00
15min,AgWx,evansfrm,411,14SEP2017:11:45:00,78.5,14.15,71.7,71.1,71.2,71.6,70.8,58,60,56,1.545,55.5,56.4,54.3,2.389,3.3,249,18,5.6,0.00253,0.00301,73.5,71.6,11,325,0,87.5,3.45,0.00,0.00
15min,AgWx,evansfrm,411,14SEP2017:12:00:00,78.8,14.16,72.3,72.1,71.7,72.6,70.9,56,59,51,1.377,55.1,56.3,53.1,2.105,3.2,210,18,5.3,0.00350,0.00404,73.9,71.4,11,493,0,97.9,3.44,0.00,0.00
15min,AgWx,evansfrm,411,14SEP2017:12:15:00,78.9,14.16,73.0,72.9,72.4,73.2,71.8,51,55,47,1.341,53.5,55.1,51.4,4.538,3.9,193,35,7.9,0.00307,0.00369,74.3,71.6,11,396,0,90.0,3.44,0.00,0.00
15min,AgWx,evansfrm,411,14SEP2017:12:30:00,79.3,14.12,73.4,73.1,73.8,74.9,72.9,46,51,41,1.245,51.5,55.0,48.2,7.519,8.1,224,22,16.0,0.00454,0.00573,74.8,71.6,11,575,0,96.3,3.45,0.01,0.00
15min,AgWx,evansfrm,411,14SEP2017:12:45:00,78.8,14.14,73.2,73.1,72.9,73.3,72.5,46,48,43,1.246,50.7,52.3,49.2,7.892,8.9,182,18,16.1,0.00318,0.00435,75.3,71.8,11,307,0,82.0,3.44,0.00,0.00
15min,AgWx,evansfrm,411,14SEP2017:13:00:00,78.2,14.17,72.6,72.7,72.2,73.4,71.6,46,48,44,1.250,50.2,51.8,49.2,11.86,11.1,224,18,17.9,0.00395,0.00533,75.6,71.8,11,441,0,85.4,3.42,0.00,0.00
15min,AgWx,evansfrm,411,14SEP2017:13:15:00,78.4,14.15,71.8,71.7,72.8,73.8,71.7,44,46,42,1.172,49.6,51.1,48.0,9.95,11.6,223,16,19.2,0.00534,0.00691,75.9,72.0,11,700,0,96.4,3.42,0.00,0.00
15min,AgWx,evansfrm,411,14SEP2017:13:30:00,77.8,14.1,71.0,70.9,71.2,71.9,70.8,44,46,43,1.142,48.5,49.1,47.8,10.39,8.6,218,14,13.6,0.00284,0.00397,76.2,72.1,11,253,0,79.6,3.43,0.01,0.00
15min,AgWx,evansfrm,411,14SEP2017:13:45:00,77.0,14.05,70.7,70.5,70.6,70.9,70.3,45,47,44,1.146,48.4,49.5,47.6,8.18,7.4,217,18,12.7,0.00241,0.00338,76.3,72.1,11,201,0,76.8,3.43,0.00,0.00
15min,AgWx,evansfrm,411,14SEP2017:14:00:00,76.2,13.99,69.7,69.7,69.9,70.5,69.4,46,47,44,1.169,48.1,48.8,47.3,7.432,7.8,213,15,12.6,0.00235,0.00333,76.6,72.5,11,190,0,75.4,3.43,0.00,0.00
15min,AgWx,evansfrm,411,14SEP2017:14:15:00,75.4,14.2,69.4,69.1,69.7,70.2,69.1,48,49,45,1.188,49.0,50.1,47.7,9.16,5.9,211,17,9.8,0.00208,0.00286,76.7,72.5,11,185,0,74.4,3.43,0.00,0.00
15min,AgWx,evansfrm,411,14SEP2017:14:30:00,74.7,14.22,69.1,69.2,69.1,69.6,68.6,50,53,47,1.271,49.9,51.1,48.5,7.015,8.0,211,15,11.6,0.00259,0.00353,76.9,72.7,11,265,0,74.5,3.43,0.00,0.00
15min,AgWx,evansfrm,411,14SEP2017:14:45:00,74.5,14.24,69.5,69.3,69.6,70.3,68.8,51,54,49,1.221,50.6,51.7,49.3,8.05,6.7,208,26,13.8,0.00287,0.00372,76.9,72.7,11,350,0,82.6,3.43,0.00,0.00
15min,AgWx,evansfrm,411,14SEP2017:15:00:00,75.0,14.21,70.3,70.2,69.9,70.9,69.2,48,52,45,1.181,49.6,51.2,47.9,8.22,6.9,184,17,14.4,0.00328,0.00420,76.7,72.7,11,421,0,85.7,3.43,0.00,0.00
15min,AgWx,evansfrm,411,14SEP2017:15:15:00,75.2,14.13,69.4,69.2,69.6,70.2,69.1,48,51,46,1.200,49.3,50.9,48.2,4.516,5.1,177,19,9.8,0.00227,0.00297,76.8,72.9,11,252,0,78.8,3.43,0.01,0.00
15min,AgWx,evansfrm,411,14SEP2017:15:30:00,75.0,14.2,70.6,70.4,69.7,70.4,69.1,48,52,46,1.163,49.3,51.1,48.0,2.039,4.0,144,22,7.5,0.00206,0.00265,77.0,73.0,11,240,0,79.2,3.43,0.00,0.00
15min,AgWx,evansfrm,411,14SEP2017:15:45:00,75.8,14.15,71.3,70.9,71.1,72.0,70.3,45,48,43,1.166,48.9,50.6,47.6,3.332,3.8,135,33,8.4,0.00268,0.00332,77.0,73.0,11,367,0,88.7,3.43,0.00,0.00
15min,AgWx,evansfrm,411,14SEP2017:16:00:00,75.7,14.17,70.4,70.6,70.4,70.9,69.7,46,49,43,1.202,48.6,50.1,46.8,5.064,5.1,156,20,11.5,0.00192,0.00263,77.1,73.0,11,189,0,77.3,3.43,0.00,0.00
15min,AgWx,evansfrm,411,14SEP2017:16:15:00,75.1,13.9,67.5,67.4,68.8,70.6,67.3,53,57,47,1.307,50.8,51.8,49.3,11.75,9.2,202,15,15.0,0.00206,0.00301,77.2,73.0,11,172,0,73.4,3.43,0.00,0.00
15min,AgWx,evansfrm,411,14SEP2017:16:30:00,73.9,13.74,66.7,66.7,66.9,67.5,66.4,59,62,57,1.370,52.3,53.1,51.5,10.7,9.1,180,22,14.0,0.00159,0.00236,77.3,73.0,11,113,0,69.7,3.43,0.00,0.00
15min,AgWx,evansfrm,411,14SEP2017:16:45:00,72.5,13.6,66.3,66.2,66.2,66.7,65.9,61,62,60,1.326,52.4,53.2,51.8,9.93,11.7,149,10,15.5,0.00158,0.00246,77.3,73.2,11,88,0,67.8,3.43,0.00,0.00
15min,AgWx,evansfrm,411,14SEP2017:17:00:00,71.3,13.38,65.6,65.3,65.6,66.2,65.3,61,61,60,1.305,51.8,52.3,51.3,7.848,10.3,164,15,13.2,0.00126,0.00205,77.4,73.0,11,41,0,66.5,3.43,0.00,0.00
15min,AgWx,evansfrm,411,14SEP2017:17:15:00,69.9,13.15,62.8,62.9,64.4,65.3,62.9,65,72,61,1.415,52.2,54.0,51.3,6.862,9.0,175,9.5,12.9,0.00097,0.00159,77.1,73.2,11,26,53,63.3,3.45,0.02,0.00
15min,AgWx,evansfrm,411,14SEP2017:17:30:00,68.1,13.03,61.8,61.7,62.1,62.9,61.6,74,76,73,1.416,53.8,54.3,53.5,9.62,7.7,182,12,10.2,0.00061,0.00100,77.2,73.2,11,19,100,60.7,3.44,0.00,0.00
15min,AgWx,evansfrm,411,14SEP2017:17:45:00,66.4,13.03,61.3,61.2,61.4,61.7,61.0,77,79,75,1.463,54.3,55.0,53.6,3.858,5.7,154,16,10.5,0.00044,0.00070,77.1,73.4,11,16,100,60.6,3.44,0.00,0.00
15min,AgWx,evansfrm,411,14SEP2017:18:00:00,65.0,12.97,60.5,60.5,61.0,61.5,60.4,83,86,79,1.537,55.9,56.8,54.8,1.228,2.4,210,58,4.3,0.00020,0.00029,76.8,73.4,11,12,100,61.9,3.44,0.00,0.00
15min,AgWx,evansfrm,411,14SEP2017:18:15:00,63.9,13,60.3,60.2,60.3,60.6,60.0,86,87,86,1.528,56.1,56.4,55.8,3.464,1.8,235,52,4.5,0.00012,0.00018,76.5,73.4,11,7,100,62.2,3.44,0.00,0.01
15min,AgWx,evansfrm,411,14SEP2017:18:30:00,63.1,12.99,59.9,60.0,60.2,60.4,59.9,87,89,86,1.572,56.3,56.9,55.9,3.639,3.4,144,21,4.9,0.00015,0.00025,76.2,73.4,11,4,100,60.8,3.44,0.00,0.00
15min,AgWx,evansfrm,411,14SEP2017:18:45:00,62.4,12.99,59.8,59.8,59.8,60.0,59.5,90,92,89,1.604,57.0,57.5,56.6,3.223,2.9,85,25,3.6,0.00005,0.00007,76.0,73.4,11,1,100,62.0,3.44,0.00,0.00
15min,AgWx,evansfrm,411,14SEP2017:19:00:00,61.8,13.02,60.5,60.3,59.7,60.3,58.9,92,93,88,1.566,57.2,57.8,56.5,2.411,3.3,223,97,6.5,0.00004,0.00007,75.7,73.4,11,0,31,60.5,3.44,0.00,0.00
15min,AgWx,evansfrm,411,14SEP2017:19:15:00,61.3,13.01,59.7,59.6,59.6,60.3,59.1,91,93,88,1.584,57.0,57.3,56.6,2.105,2.3,206,40,3.6,0.00003,0.00005,75.5,73.4,11,0,0,58.2,3.44,0.00,0.00
15min,AgWx,evansfrm,411,14SEP2017:19:30:00,61.0,13.01,59.8,59.8,59.7,59.9,59.3,91,91,90,1.577,57.0,57.3,56.5,0,1.3,111,14,2.4,0.00001,0.00002,75.3,73.4,11,0,0,58.9,3.44,0.00,0.00
15min,AgWx,evansfrm,411,14SEP2017:19:45:00,60.6,13,59.8,59.7,59.8,60.0,59.6,89,90,87,1.562,56.5,57.1,56.1,4.932,1.6,27,55,7.9,0.00003,0.00004,75.1,73.4,11,0,0,58.7,3.44,0.00,0.00
15min,AgWx,evansfrm,411,14SEP2017:20:00:00,60.4,12.99,59.6,59.6,59.5,59.8,59.3,90,91,89,1.589,56.6,57.1,56.3,0,1.6,344,28,4.9,0.00002,0.00004,74.7,73.2,11,0,0,58.8,3.44,0.00,0.00
15min,AgWx,evansfrm,411,14SEP2017:20:15:00,60.4,13,60.2,60.1,59.6,60.1,59.1,91,92,91,1.608,57.1,57.4,56.8,1.666,1.0,52,67,2.8,0.00001,0.00001,74.5,73.2,11,0,0,58.9,3.44,0.00,0.00
15min,AgWx,evansfrm,411,14SEP2017:20:30:00,60.3,13,59.7,59.6,59.9,60.2,59.5,91,92,91,1.604,57.3,57.5,57.1,1.184,2.0,283,12,3.2,0.00003,0.00004,74.4,73.0,11,0,0,59.2,3.44,0.00,0.00
15min,AgWx,evansfrm,411,14SEP2017:20:45:00,60.2,12.94,59.1,59.2,59.4,59.7,59.1,93,94,92,1.619,57.4,57.7,57.2,1.71,1.1,192,51,3.2,0.00000,0.00001,74.2,73.0,11,0,0,58.5,3.44,0.00,0.00
15min,AgWx,evansfrm,411,14SEP2017:21:00:00,60.0,12.99,58.9,59.0,59.1,59.3,58.9,95,96,94,1.632,57.6,57.8,57.4,1.14,0.9,194,73,2.3,-0.00001,-0.00001,73.9,73.0,11,0,0,58.1,3.44,0.00,0.00
15min,AgWx,evansfrm,411,14SEP2017:21:15:00,59.8,12.98,58.6,58.7,58.7,59.0,58.5,97,98,96,1.646,57.8,58.1,57.5,2.368,1.7,164,14,2.5,-0.00000,-0.00000,73.7,72.9,11,0,0,57.8,3.44,0.00,0.00
15min,AgWx,evansfrm,411,14SEP2017:21:30:00,59.7,12.98,58.5,58.6,58.6,58.7,58.4,98,99,98,1.663,58.2,58.4,57.9,0,1.6,118,33,3.2,-0.00001,-0.00001,73.6,72.9,11,0,0,58.2,3.44,0.00,0.00
15min,AgWx,evansfrm,411,14SEP2017:21:45:00,59.7,12.98,58.8,58.9,58.8,59.1,58.5,99,99,99,1.670,58.5,58.8,58.2,1.776,0.5,330,35,2.2,-0.00002,-0.00003,73.4,72.9,11,0,0,58.3,3.44,0.00,0.00
15min,AgWx,evansfrm,411,14SEP2017:22:00:00,59.7,12.97,59.6,59.2,58.9,59.3,58.6,97,99,93,1.598,58.0,58.6,57.2,1.622,2.6,294,19,4.8,0.00000,0.00001,73.2,72.7,11,0,0,58.9,3.44,0.00,0.00
15min,AgWx,evansfrm,411,14SEP2017:22:15:00,59.8,12.97,59.3,59.2,59.3,59.5,59.2,92,93,91,1.577,56.9,57.4,56.6,4.406,2.2,287,22,6.8,0.00003,0.00004,72.9,72.7,11,0,0,59.0,3.44,0.00,0.00
15min,AgWx,evansfrm,411,14SEP2017:22:30:00,59.8,12.97,58.6,58.4,58.7,59.3,58.3,93,94,92,1.539,56.8,57.1,56.2,1.863,2.6,247,21,5.2,0.00002,0.00004,72.7,72.5,11,0,0,58.5,3.45,0.00,0.00
15min,AgWx,evansfrm,411,14SEP2017:22:45:00,59.7,12.95,58.7,58.8,58.6,58.9,58.2,91,93,91,1.565,56.1,56.7,55.8,3.464,2.3,149,55,4.7,0.00003,0.00005,72.5,72.5,11,0,0,58.5,3.44,0.00,0.00
15min,AgWx,evansfrm,411,14SEP2017:23:00:00,59.7,12.96,58.8,58.8,58.5,58.8,58.2,93,93,92,1.564,56.5,56.7,56.2,6.445,4.1,128,49,6.4,0.00004,0.00006,72.4,72.5,11,0,0,58.7,3.44,0.00,0.00
15min,AgWx,evansfrm,411,14SEP2017:23:15:00,59.7,12.94,58.5,58.4,58.6,58.9,58.3,93,93,92,1.552,56.6,56.8,56.4,1.754,5.6,212,16,7.7,0.00006,0.00008,72.2,72.3,11,0,1,58.4,3.45,0.00,0.00
15min,AgWx,evansfrm,411,14SEP2017:23:30:00,59.4,12.9,54.5,54.3,57.4,58.5,54.3,92,93,90,1.341,55.1,56.4,52.4,9.08,6.5,254,40,16.1,0.00007,0.00009,72.1,72.1,11,0,84,57.9,3.48,0.04,0.02
15min,AgWx,evansfrm,411,14SEP2017:23:45:00,58.3,12.86,53.1,53.2,53.6,54.2,53.2,97,98,93,1.360,52.6,52.9,52.4,2.411,4.1,339,31,11.1,0.00001,0.00002,72.0,72.1,11,0,100,55.7,3.53,0.05,0.05
15min,AgWx,drainfrm,410,14SEP2017:00:00:00,63.2,12.75,62.5,63.0,64.3,66.1,63.0,68,73,60,1.430,53.5,54.3,52.0,6.138,10.3,138,14,15.2,0.00033,0.00043,67.7,68.0,14,0,100,61.8,3.50,0.01,0.00
15min,AgWx,drainfrm,410,14SEP2017:00:15:00,62.6,12.74,63.4,63.5,63.7,64.7,62.9,68,73,63,1.320,53.1,54.2,51.9,7.432,8.1,120,14,12.1,0.00024,0.00033,67.7,67.5,14,0,100,63.8,3.50,0.00,0.00
15min,AgWx,drainfrm,410,14SEP2017:00:30:00,62.6,12.74,64.0,64.6,64.0,64.7,63.4,66,68,62,1.308,52.3,52.9,51.1,6.116,6.6,138,17,9.6,0.00021,0.00030,67.5,67.5,14,0,100,64.7,3.50,0.00,0.00
15min,AgWx,drainfrm,410,14SEP2017:00:45:00,62.6,12.71,62.2,62.4,63.6,65.1,62.4,68,72,59,1.376,52.7,53.9,50.0,6.993,7.9,185,16,13.3,0.00024,0.00033,67.6,67.5,14,0,100,64.1,3.50,0.00,0.00
15min,AgWx,drainfrm,410,14SEP2017:01:00:00,62.3,12.72,61.1,61.4,61.9,62.5,61.4,74,75,72,1.382,53.6,53.9,53.2,6.357,7.7,191,10,10.7,0.00015,0.00021,67.4,67.5,14,0,100,62.5,3.50,0.00,0.00
15min,AgWx,drainfrm,410,14SEP2017:01:15:00,61.7,12.72,60.8,61.0,61.1,61.6,60.0,74,77,72,1.349,52.9,53.5,52.3,8.33,7.0,172,21,11.6,0.00011,0.00017,67.4,67.6,14,0,100,61.5,3.50,0.00,0.00
15min,AgWx,drainfrm,410,14SEP2017:01:30:00,61.2,12.71,59.6,59.9,60.6,61.1,59.9,74,76,74,1.334,52.5,52.9,52.1,6.599,7.6,172,11,10.3,0.00013,0.00019,67.2,67.1,14,0,100,61.1,3.50,0.00,0.00
15min,AgWx,drainfrm,410,14SEP2017:01:45:00,60.8,12.7,62.0,62.6,60.7,62.6,59.5,73,77,66,1.304,51.9,52.3,50.9,8.79,6.7,163,12,9.6,0.00012,0.00018,67.3,67.3,14,0,100,61.1,3.50,0.00,0.00
15min,AgWx,drainfrm,410,14SEP2017:02:00:00,60.5,12.69,59.4,59.9,60.8,62.5,59.9,72,75,68,1.308,51.9,52.2,51.6,5.239,6.6,180,7.1,9.6,0.00012,0.00018,67.2,67.3,14,0,94,61.4,3.49,0.00,0.00
15min,AgWx,drainfrm,410,14SEP2017:02:15:00,60.1,12.68,58.9,59.2,59.9,60.3,59.1,74,77,73,1.314,51.6,51.9,51.4,6.138,5.0,166,9.0,6.7,0.00004,0.00008,67.2,67.1,14,0,99,60.5,3.49,0.00,0.00
15min,AgWx,drainfrm,410,14SEP2017:02:30:00,59.8,12.67,60.2,60.6,59.9,60.7,59.1,75,78,72,1.299,51.8,52.3,51.6,6.379,5.1,168,14,7.1,0.00004,0.00008,67.0,66.7,14,0,100,60.6,3.49,0.00,0.00
15min,AgWx,drainfrm,410,14SEP2017:02:45:00,59.7,12.67,60.8,61.4,60.8,61.5,60.4,72,73,69,1.285,51.6,52.0,51.2,3.814,4.5,154,11,7.1,0.00004,0.00008,66.9,66.9,14,0,100,61.8,3.49,0.00,0.00
15min,AgWx,drainfrm,410,14SEP2017:03:00:00,59.7,12.66,59.2,59.6,60.5,61.8,59.6,73,77,68,1.342,52.0,52.7,51.1,2.28,3.6,108,79,5.4,-0.00003,-0.00001,67.0,67.3,14,0,99,61.9,3.49,0.00,0.00
15min,AgWx,drainfrm,410,14SEP2017:03:15:00,59.4,12.66,57.4,57.8,58.0,59.6,57.3,83,85,77,1.345,52.7,52.9,52.4,1.25,2.8,13,16,4.9,-0.00012,-0.00015,66.8,67.1,14,0,87,60.2,3.49,0.00,0.00
15min,AgWx,drainfrm,410,14SEP2017:03:30:00,59.0,12.65,57.3,57.9,57.9,58.1,57.7,82,82,81,1.333,52.4,52.7,52.2,2.368,2.4,357,15,4.2,-0.00015,-0.00018,66.8,67.3,14,0,100,60.3,3.49,0.00,0.00
15min,AgWx,drainfrm,410,14SEP2017:03:45:00,58.6,12.65,56.7,57.1,57.5,58.0,57.1,83,85,81,1.351,52.6,52.8,52.3,3.902,3.6,24,11,4.8,-0.00010,-0.00011,66.8,67.1,14,0,100,59.9,3.49,0.00,0.00
15min,AgWx,drainfrm,410,14SEP2017:04:00:00,58.3,12.64,58.1,58.5,57.3,58.6,56.3,84,87,80,1.366,52.5,52.9,52.2,4.165,4.8,50,15,7.5,-0.00005,-0.00005,66.7,67.1,14,0,100,59.3,3.49,0.00,0.00
15min,AgWx,drainfrm,410,14SEP2017:04:15:00,58.0,12.64,56.8,57.3,57.6,58.4,57.0,83,85,82,1.332,52.6,53.0,52.2,1.666,2.1,58,19,5.6,-0.00016,-0.00021,66.6,66.7,14,0,100,59.2,3.49,0.00,0.00
15min,AgWx,drainfrm,410,14SEP2017:04:30:00,57.4,12.64,56.2,56.8,57.2,57.6,56.8,84,85,83,1.334,52.3,52.6,52.1,0,0.8,104,28,1.8,-0.00025,-0.00036,66.5,66.7,14,0,100,58.3,3.49,0.00,0.00
15min,AgWx,drainfrm,410,14SEP2017:04:45:00,56.7,12.64,56.1,56.9,56.7,57.3,56.1,85,87,83,1.322,52.3,52.9,51.7,4.867,2.9,5.2,22,4.9,-0.00014,-0.00017,66.5,66.7,14,0,100,58.4,3.49,0.00,0.00
15min,AgWx,drainfrm,410,14SEP2017:05:00:00,56.1,12.63,54.7,55.1,56.0,56.9,55.0,86,87,83,1.280,51.8,52.4,51.1,0,2.0,1.0,9.8,5.0,-0.00018,-0.00023,66.4,67.3,14,0,100,57.7,3.49,0.00,0.00
15min,AgWx,drainfrm,410,14SEP2017:05:15:00,55.5,12.63,53.8,54.3,54.9,55.6,54.3,87,89,85,1.225,51.2,51.4,50.0,3.113,1.5,13,72,3.4,-0.00021,-0.00029,66.4,66.6,14,0,100,56.6,3.49,0.00,0.00
15min,AgWx,drainfrm,410,14SEP2017:05:30:00,55.1,12.61,54.5,55.0,54.6,55.1,53.9,87,89,86,1.299,51.0,51.5,50.0,0.877,1.4,320,31,3.3,-0.00022,-0.00030,66.2,66.2,14,0,100,57.4,3.49,0.00,0.00
15min,AgWx,drainfrm,410,14SEP2017:05:45:00,54.9,12.62,54.7,55.1,54.9,55.2,54.8,88,89,87,1.287,51.6,51.8,51.2,2.981,1.6,5.2,41,3.3,-0.00021,-0.00028,66.2,66.9,14,0,100,57.7,3.49,0.00,0.00
15min,AgWx,drainfrm,410,14SEP2017:06:00:00,54.7,12.62,54.7,55.0,55.3,55.7,55.0,86,88,85,1.290,51.3,51.6,51.0,2.192,1.8,291,56,3.4,-0.00019,-0.00026,66.2,67.1,14,0,100,58.0,3.49,0.00,0.00
15min,AgWx,drainfrm,410,14SEP2017:06:15:00,54.8,12.62,54.9,55.4,54.9,55.4,54.5,88,90,86,1.347,51.6,52.5,50.9,2.477,1.7,252,24,2.9,-0.00019,-0.00026,66.0,66.7,14,3,100,56.8,3.50,0.01,0.01
15min,AgWx,drainfrm,410,14SEP2017:06:30:00,55.0,12.62,55.4,55.5,55.6,55.8,55.3,91,92,90,1.379,53.1,53.4,52.5,2.105,3.0,254,7.4,5.3,0.00010,0.00015,66.0,66.6,14,4,100,57.3,3.50,0.00,0.00
15min,AgWx,drainfrm,410,14SEP2017:06:45:00,55.2,12.62,55.1,55.5,55.5,55.6,55.4,91,92,91,1.372,53.1,53.2,52.9,0.921,2.5,291,15,4.6,0.00008,0.00012,65.9,66.4,14,3,100,57.7,3.50,0.00,0.00
15min,AgWx,drainfrm,410,14SEP2017:07:00:00,55.4,12.62,55.4,55.8,55.6,55.8,55.5,92,93,91,1.401,53.4,53.8,53.0,1.556,1.5,29,28,2.9,0.00008,0.00010,65.8,66.9,14,6,100,57.6,3.51,0.01,0.01
15min,AgWx,drainfrm,410,14SEP2017:07:15:00,55.5,12.62,55.8,56.1,55.8,56.2,55.6,91,93,90,1.381,53.3,53.6,53.0,3.31,2.4,13,27,4.3,0.00014,0.00019,65.8,66.7,14,14,100,58.5,3.51,0.00,0.00
15min,AgWx,drainfrm,410,14SEP2017:07:30:00,55.7,12.62,55.8,56.1,56.1,56.3,55.9,91,92,90,1.402,53.5,53.7,53.1,5.678,5.4,82,13,7.4,0.00028,0.00038,65.6,66.6,14,28,100,58.5,3.51,0.00,0.00
15min,AgWx,drainfrm,410,14SEP2017:07:45:00,56.0,12.62,57.2,57.8,56.7,57.8,56.1,91,92,89,1.449,54.1,54.7,53.5,1.25,3.9,95,9.6,6.2,0.00039,0.00048,65.6,66.4,14,52,100,58.8,3.51,0.00,0.00
15min,AgWx,drainfrm,410,14SEP2017:08:00:00,56.6,12.62,58.3,58.6,58.2,59.0,57.7,86,89,83,1.425,54.2,55.0,53.5,6.467,6.0,342,35,10.9,0.00067,0.00085,65.5,66.6,14,101,100,62.2,3.51,0.00,0.00